Stations météo

réclame
Mon MeteoGroup
Lelystad aws, Pays-Bas (6269): Température de l'air & dewpoint: 08.10.2019 20:00:00 - 14.10.2019 20:00:00 (CEST)Lelystad aws, Pays-Bas (6269): Température de l'air 5cm: 08.10.2019 20:00:00 - 14.10.2019 20:00:00 (CEST)Lelystad aws, Pays-Bas (6269): Vitesse du vent & gusts: 08.10.2019 20:00:00 - 14.10.2019 20:00:00 (CEST)Lelystad aws, Pays-Bas (6269): Direction du vent: 08.10.2019 20:00:00 - 14.10.2019 20:00:00 (CEST)Lelystad aws, Pays-Bas (6269): reduced air pressure: 08.10.2019 20:00:00 - 14.10.2019 20:00:00 (CEST)Lelystad aws, Pays-Bas (6269): visibility: 08.10.2019 20:00:00 - 14.10.2019 20:00:00 (CEST)Lelystad aws, Pays-Bas (6269): Quantités de précipitations: 08.10.2019 20:00:00 - 14.10.2019 20:00:00 (CEST)
Date & Time tt [°C] td [°C] tt 5cm [°C] ff [km/h] ff [knt] fx [km/h] fx [knt] dd ppp [hPa] vv [km] rr [mm]
14.10.2019 20:00:00 14,7 13,8 13,8 11 6 18 10 ENE 1006,9 12 0,0
14.10.2019 19:00:00 14,6 13,6 14,0 14 8 25 14 ENE 1007,0 13 0,0
14.10.2019 18:00:00 15,1 13,8 14,9 18 10 29 16 ENE 1007,4 16 0,0
14.10.2019 17:00:00 15,0 13,4 14,7 22 12 32 18 ENE 1008,2 16 0,0
14.10.2019 16:00:00 15,0 13,3 15,0 22 12 36 19 ENE 1009,2 18 0,0
14.10.2019 15:00:00 15,2 13,5 14,7 22 12 29 16 ENE 1009,9 18 0,0
14.10.2019 14:00:00 14,1 12,7 14,0 18 10 22 12 NE 1011,1 10 0,7
14.10.2019 13:00:00 15,2 12,3 15,8 18 10 22 12 ENE 1012,1 24 0,0
14.10.2019 12:00:00 14,9 12,6 15,3 11 6 14 8 ENE 1012,7 20 0,0
14.10.2019 11:00:00 13,9 12,2 13,9 7 4 11 6 E 1013,4 20 0,0
14.10.2019 10:00:00 12,9 11,9 12,6 7 4 7 4 E 1013,4 15 0,0
14.10.2019 09:00:00 12,1 11,5 11,7 4 2 11 6 SSE 1013,4 15 0,0
14.10.2019 08:00:00 11,8 11,0 11,2 7 4 11 6 S 1013,7 17 0,0
14.10.2019 07:00:00 11,8 10,9 11,2 4 2 14 8 S 1012,7 21 0,0
14.10.2019 06:00:00 12,2 10,8 11,5 11 6 11 6 SSW 1012,7 24 0,0
14.10.2019 05:00:00 12,0 10,6 11,0 7 4 14 8 SSW 1012,1 23 0,0
14.10.2019 04:00:00 12,0 10,5 10,5 11 6 18 10 WSW 1012,1 22 0,0
14.10.2019 03:00:00 11,7 10,5 10,7 14 8 22 12 SW 1012,0 19 0,0
14.10.2019 02:00:00 13,4 12,1 12,4 14 8 29 16 WSW 1011,4 16 0,0
14.10.2019 01:00:00 14,1 12,5 13,4 22 12 32 18 SW 1010,7 17 0,0
14.10.2019 00:00:00 14,5 13,0 14,0 25 14 36 19 SW 1009,6 19 0,0
13.10.2019 23:00:00 15,2 13,4 14,6 25 14 36 19 SW 1008,8 22 0,0
13.10.2019 22:00:00 15,5 13,6 15,0 25 14 43 23 SW 1007,8 22 0,0
13.10.2019 21:00:00 16,4 14,1 15,8 25 14 40 21 SW 1007,0 43 0,1
13.10.2019 20:00:00 17,5 15,4 16,8 22 12 47 25 WSW 1006,2 30 0,0
13.10.2019 19:00:00 17,6 16,4 16,9 43 23 58 31 SW 1005,1 3,3 10,5
13.10.2019 18:00:00 20,6 15,6 19,5 25 14 36 19 SSW 1004,3 42 0,0
13.10.2019 17:00:00 20,5 16,1 19,7 22 12 36 19 SSW 1004,6 45 0,0
13.10.2019 16:00:00 20,6 16,1 19,9 25 14 36 19 S 1004,2 40 0,0
13.10.2019 15:00:00 21,1 16,9 20,8 22 12 32 18 S 1004,2 36 0,0
13.10.2019 14:00:00 20,1 17,1 20,0 22 12 32 18 S 1004,9 27 0,0
13.10.2019 13:00:00 18,4 16,5 18,3 14 8 29 16 S 1005,9 25 0,0
13.10.2019 12:00:00 17,4 16,1 16,8 18 10 29 16 S 1006,6 18 0,4
13.10.2019 11:00:00 16,7 15,5 16,2 14 8 22 12 S 1006,2 14 0,0
13.10.2019 10:00:00 15,3 14,6 14,8 11 6 18 10 S 1006,9 11 0,2
13.10.2019 09:00:00 13,7 13,2 13,1 11 6 18 10 SSE 1006,7 6 0,0
13.10.2019 08:00:00 12,0 11,7 10,9 7 4 11 6 SE 1006,8 3,2 0,0
13.10.2019 07:00:00 11,7 11,5 11,2 4 2 11 6 ESE 1007,4 3,0 0,0
13.10.2019 06:00:00 11,9 11,6 11,8 7 4 11 6 ESE 1007,8 2,9 0,0
13.10.2019 05:00:00 11,7 11,4 11,6 7 4 14 8 E 1008,0 3,4 0,0
13.10.2019 04:00:00 11,6 11,1 11,5 11 6 14 8 ENE 1008,3 4,4 0,0
13.10.2019 03:00:00 11,5 11,0 11,5 11 6 14 8 NE 1008,9 7 0,0
13.10.2019 02:00:00 11,5 10,8 11,3 11 6 18 10 E 1009,1 10 0,0
13.10.2019 01:00:00 11,4 11,0 11,3 7 4 14 8 E 1010,0 6 0,4
13.10.2019 00:00:00 11,3 10,9 11,2 7 4 14 8 ESE 1010,4 4,1 0,4
12.10.2019 23:00:00 11,2 11,0 11,2 7 4 11 6 ENE 1010,5 8 0,4
12.10.2019 22:00:00 11,3 10,9 11,2 4 2 7 4 E 1010,3 2,8 1,0
12.10.2019 21:00:00 11,3 11,0 11,3 7 4 11 6 SE 1010,0 6 0,2
12.10.2019 20:00:00 11,3 11,0 11,3 0 0 7 4 N 1010,0 5 0,2
12.10.2019 19:00:00 11,3 11,0 11,3 4 2 7 4 S 1010,2 3,7 0,8
12.10.2019 18:00:00 11,4 11,0 11,5 4 2 11 6 SSW 1009,6 3,4 0,5
12.10.2019 17:00:00 11,8 11,2 11,9 7 4 14 8 SSW 1010,1 4,7 0,3
12.10.2019 16:00:00 12,0 11,1 12,2 11 6 18 10 SSW 1010,2 6 0,0
12.10.2019 15:00:00 13,1 10,8 13,0 11 6 18 10 WSW 1010,2 24 0,0
12.10.2019 14:00:00 12,6 11,0 13,1 14 8 25 14 SSW 1009,8 43 0,0
12.10.2019 13:00:00 12,5 10,1 12,7 14 8 29 16 SW 1009,8 10 0,0
12.10.2019 12:00:00 12,8 10,9 12,9 18 10 25 14 WSW 1009,2 17 0,0
12.10.2019 11:00:00 12,9 12,2 13,0 14 8 22 12 WSW 1008,7 3,7 0,4
12.10.2019 10:00:00 12,4 11,9 12,5 14 8 22 12 WSW 1008,2 2,6 0,3
12.10.2019 09:00:00 12,1 11,7 12,0 7 4 14 8 SW 1007,3 3,6 0,1
12.10.2019 08:00:00 11,6 11,2 11,5 11 6 18 10 WSW 1006,8 4,6 0,1
12.10.2019 07:00:00 11,8 11,4 11,7 11 6 14 8 WSW 1006,5 4,0 0,6
12.10.2019 06:00:00 11,4 11,0 11,3 7 4 29 16 W 1006,5 2,9 0,8
12.10.2019 05:00:00 11,8 11,2 11,9 14 8 22 12 W 1006,5 3,0 1,0
12.10.2019 04:00:00 12,7 12,1 12,6 14 8 29 16 WSW 1005,9 4,1 0,2
12.10.2019 03:00:00 13,5 12,3 13,3 22 12 50 27 W 1006,2 13 0,0
12.10.2019 02:00:00 16,3 12,7 15,6 36 19 50 27 SW 1005,3 48 0,0
12.10.2019 01:00:00 15,8 13,1 15,2 32 18 47 25 SW 1005,4 43 0,0
12.10.2019 00:00:00 15,2 13,7 14,8 32 18 54 29 SW 1006,0 7 0,0
11.10.2019 23:00:00 15,9 13,1 15,3 43 23 58 31 SW 1005,8 44 0,0
11.10.2019 22:00:00 16,0 12,9 15,3 40 21 54 29 SW 1005,7 50 0,0
11.10.2019 21:00:00 15,4 12,7 14,8 36 19 54 29 SSW 1005,8 47 0,0
11.10.2019 20:00:00 15,0 12,5 14,4 36 19 50 27 SSW 1006,1 48 0,0
11.10.2019 19:00:00 14,7 12,5 14,0 36 19 54 29 SSW 1006,2 46 0,0
11.10.2019 18:00:00 14,5 12,7 13,9 36 19 50 27 SSW 1006,5 16 0,3
11.10.2019 17:00:00 14,3 12,8 13,8 32 18 54 29 SSW 1006,8 14 0,6
11.10.2019 16:00:00 14,2 12,8 13,8 29 16 50 27 SSW 1007,5 8 0,9
11.10.2019 15:00:00 14,5 12,8 14,2 32 18 47 25 SSW 1008,0 18 0,2
11.10.2019 14:00:00 14,4 12,8 14,0 32 18 50 27 SSW 1008,5 12 0,2
11.10.2019 13:00:00 14,2 12,6 13,9 32 18 47 25 SSW 1008,9 21 0,1
11.10.2019 12:00:00 14,4 12,4 14,2 36 19 58 31 SSW 1009,2 21 0,0
11.10.2019 11:00:00 14,2 12,2 13,7 36 19 50 27 SSW 1009,2 17 0,0
11.10.2019 10:00:00 13,9 11,9 13,6 32 18 47 25 SSW 1009,3 21 0,0
11.10.2019 09:00:00 13,5 11,6 13,0 32 18 50 27 SSW 1009,2 24 0,0
11.10.2019 08:00:00 13,4 11,4 12,9 36 19 47 25 SSW 1009,2 17 0,0
11.10.2019 07:00:00 13,4 11,1 12,8 32 18 47 25 SSW 1009,5 22 0,0
11.10.2019 06:00:00 12,8 11,0 12,1 29 16 43 23 SSW 1009,7 21 1,6
11.10.2019 05:00:00 12,5 10,7 12,1 32 18 47 25 SSW 1009,6 14 0,0
11.10.2019 04:00:00 12,9 10,3 12,3 32 18 50 27 SSW 1010,3 23 0,0
11.10.2019 03:00:00 13,8 9,5 13,1 36 19 50 27 SSW 1010,4 25 0,0
11.10.2019 02:00:00 13,4 10,1 12,8 29 16 43 23 SSW 1010,8 22 0,0
11.10.2019 01:00:00 13,3 10,2 12,7 32 18 43 23 SSW 1011,3 17 0,0
11.10.2019 00:00:00 12,7 9,7 11,9 29 16 47 25 SSW 1011,7 19 0,0
10.10.2019 23:00:00 13,0 9,9 12,4 29 16 40 21 SW 1011,9 19 0,0
10.10.2019 22:00:00 13,0 10,1 12,3 25 14 36 19 SSW 1012,0 16 0,0
10.10.2019 21:00:00 12,3 9,4 11,4 22 12 29 16 SSW 1012,3 23 0,0
10.10.2019 20:00:00 11,6 8,8 10,6 18 10 25 14 SSW 1012,4 21 0,0
10.10.2019 19:00:00 12,0 8,8 11,1 18 10 32 18 SW 1012,2 24 0,0
10.10.2019 18:00:00 13,6 8,2 12,9 25 14 47 25 WSW 1011,9 34 0,0
10.10.2019 17:00:00 14,3 8,8 14,1 29 16 43 23 WSW 1011,7 25 0,0
10.10.2019 16:00:00 14,2 9,4 13,4 36 19 47 25 WSW 1011,5 29 0,0
10.10.2019 15:00:00 12,5 9,4 12,0 25 14 47 25 W 1011,1 10 0,0
10.10.2019 14:00:00 15,0 8,5 14,8 32 18 47 25 WSW 1010,6 25 0,0
10.10.2019 13:00:00 14,4 8,4 14,1 29 16 50 27 WSW 1010,2 29 0,0
10.10.2019 12:00:00 14,0 10,0 14,4 29 16 43 23 WSW 1009,7 32 0,0
10.10.2019 11:00:00 12,8 10,2 12,4 25 14 36 19 SW 1009,2 34 0,0
10.10.2019 10:00:00 11,7 10,1 11,3 22 12 32 18 SW 1008,5 30 0,0
10.10.2019 09:00:00 9,9 9,1 9,3 22 12 29 16 SW 1007,6 15 0,0
10.10.2019 08:00:00 9,4 8,6 8,7 22 12 32 18 SSW 1006,6 13 0,0
10.10.2019 07:00:00 9,5 8,5 8,9 25 14 32 18 SSW 1006,1 21 0,0
10.10.2019 06:00:00 9,2 8,4 8,6 22 12 29 16 SSW 1005,7 12 0,0
10.10.2019 05:00:00 9,5 8,7 8,9 22 12 32 18 SSW 1005,3 11 0,0
10.10.2019 04:00:00 9,2 8,3 8,5 18 10 25 14 SSW 1005,1 19 0,0
10.10.2019 03:00:00 9,9 8,8 9,3 18 10 29 16 SSW 1004,9 18 0,6
10.10.2019 02:00:00 9,8 8,7 9,5 22 12 36 19 SW 1004,9 6 0,6
10.10.2019 01:00:00 10,5 9,2 9,9 22 12 32 18 SSW 1004,4 22 0,1
10.10.2019 00:00:00 10,2 8,2 9,3 14 8 25 14 SW 1004,3 30 0,9
09.10.2019 23:00:00 9,7 8,2 8,9 14 8 25 14 SSW 1004,0 40 0,1
09.10.2019 22:00:00 9,4 8,0 8,7 11 6 36 19 SSW 1004,4 45 2,0
09.10.2019 21:00:00 10,0 9,0 9,1 18 10 36 19 SSW 1004,8 30 0,4
09.10.2019 20:00:00 9,9 8,3 9,7 22 12 32 18 SW 1003,9 20 2,7
09.10.2019 19:00:00 10,5 9,4 9,9 18 10 32 18 SSW 1003,5 28 2,0
09.10.2019 18:00:00 10,4 9,1 10,1 25 14 32 18 SW 1003,5 9 4,8
09.10.2019 17:00:00 11,3 9,7 11,0 11 6 18 10 WSW 1003,3 9 1,9
09.10.2019 16:00:00 11,2 10,0 11,5 4 2 22 12 WNW 1003,5 13 0,4
09.10.2019 15:00:00 12,1 9,6 11,7 14 8 32 18 WSW 1003,5 19 0,0
09.10.2019 14:00:00 12,8 9,2 12,9 25 14 40 21 SW 1003,3 33 0,0
09.10.2019 13:00:00 13,1 10,2 13,0 25 14 36 19 SSW 1003,6 32 0,0
09.10.2019 12:00:00 13,0 10,2 12,9 25 14 40 21 SSW 1003,8 22 0,0
09.10.2019 11:00:00 12,8 10,8 12,8 25 14 32 18 SSW 1004,4 16 0,0
09.10.2019 10:00:00 11,7 10,1 11,5 22 12 36 19 SSW 1004,7 15 0,0
09.10.2019 09:00:00 10,9 9,5 10,6 25 14 36 19 SSW 1004,8 15 0,0
09.10.2019 08:00:00 10,8 9,5 10,2 21 11 - - SSW 1004,6 15 -
09.10.2019 07:00:00 10,8 9,7 10,1 22 12 29 16 SSW 1005,0 16 0,0
09.10.2019 06:00:00 10,7 9,7 10,0 22 12 29 16 SSW 1005,2 14 0,0
09.10.2019 05:00:00 10,7 9,1 9,8 22 12 32 18 SSW 1005,2 18 0,0
09.10.2019 04:00:00 10,7 9,1 9,5 18 10 25 14 SSW 1005,2 18 0,0
09.10.2019 03:00:00 10,5 9,2 9,5 18 10 25 14 SW 1005,1 17 0,0
09.10.2019 02:00:00 10,7 9,6 10,0 22 12 36 19 SW 1005,0 17 0,0
09.10.2019 01:00:00 11,1 9,5 10,0 25 14 36 19 SSW 1004,3 29 0,0
09.10.2019 00:00:00 10,9 8,8 10,0 25 14 36 19 SW 1004,4 43 0,0
08.10.2019 23:00:00 12,4 10,0 11,9 29 16 43 23 SW 1004,3 15 0,6
08.10.2019 22:00:00 12,2 11,0 11,6 22 12 32 18 SSW 1004,1 9 0,0
08.10.2019 21:00:00 12,3 10,7 11,4 22 12 29 16 SSW 1004,1 14 0,0
08.10.2019 20:00:00 11,9 10,3 11,1 18 10 22 12 SW 1004,4 15 0,0

tt = Température de l'air
td = dewpoint
tt 5cm = Température de l'air 5cm
ff = Vitesse du vent
fx = gusts
dd = Direction du vent
ppp = reduced air pressure
vv = visibility
rr = Quantités de précipitations

stations d'obs. à proximité